Regional Weather Roundup
Issued by NWS

Home | Current Version | Previous Version | Text Only | Print | Product List | Glossary On
Versions: 1 2 3 4 5 6 7 8 9 10 11 12 13 14 15 16 17 18 19 20 21 22 23 24 25 26 27 28 29 30 31 32 33 34 35 36 37 38 39 40 41 42 43 44 45 46 47 48 49 50
000
ASUS43 KLMK 262210
RWRKY
KENTUCKY REGIONAL WEATHER ROUNDUP
NATIONAL WEATHER SERVICE LOUISVILLE KY
500 PM EST FRI DEC 26 2014

NOTE "FAIR" INDICATES FEW OR NO CLOUDS BELOW 12,000 FEET
WITH NO SIGNIFICANT WEATHER AND/OR OBSTRUCTIONS TO VISIBILITY.

KYZ001>023-026-027-061>063-070>075-262300-
WESTERN AND SOUTH CENTRAL KENTUCKY

CITY           SKY/WX    TMP DP  RH WIND       PRES   REMARKS
PADUCAH        CLOUDY    56  42  59 S9        30.14S
HENDERSON      MOCLDY    54  41  62 S6        30.14S
OWENSBORO      MOCLDY    54  43  66 S8        30.17S
HOPKINSVILLE   CLOUDY    54  38  53 S8        30.18F
BOWLING GREEN  CLEAR     54  35  48 S8        30.22S
GLASGOW        MOCLDY    53  35  50 CALM      30.23R
$$

KYZ024-025-028>034-038-045-046-053-262300-
NORTH CENTRAL KENTUCKY

CITY           SKY/WX    TMP DP  RH WIND       PRES   REMARKS
LOUISVILLE/SDF MOCLDY    54  37  52 S8        30.18S
LOUISVILLE/LOU PTCLDY    54  36  50 S8        30.18F
FORT KNOX      MOCLDY    50  37  62 S9        30.19R
$$

KYZ035>037-039>044-047>052-055>060-089>105-262300-
NORTHEAST KENTUCKY

CITY           SKY/WX    TMP DP  RH WIND       PRES   REMARKS
LEXINGTON      CLEAR     50  34  54 S9        30.22S
COVINGTON      CLOUDY    50  33  52 S9        30.17F
FRANKFORT      PTCLDY    50  33  52 S9        30.20S
$$

KYZ054-064>069-076>088-106>120-262300-
SOUTHEAST KENTUCKY

CITY           SKY/WX    TMP DP  RH WIND       PRES   REMARKS
JACKSON        PTCLDY    52  26  36 VRB3      30.24S
LONDON         PTCLDY    53  27  36 S6        30.24F
SOMERSET       CLEAR     52  32  46 S5        30.25S
MIDDLESBORO    PTCLDY    49  32  51 CALM      30.29R
MONTICELLO     CLEAR     53  35  50 CALM      30.26S
$$




USA.gov is the U.S. government's official web portal to all federal, state and local government web resources and services.